Findlay, OH

3:09 PM EST on January 20, 2017 (GMT -0500)
Findlay

Weather History for KFDY - January, 2013

Change the Weather History Date:

Sunday, January 27, 2013

  Actual Average Record
Temperature  
Mean Temperature 21 °F -  
Max Temperature 32 °F 30 °F 60 °F (1999)
Min Temperature 10 °F 16 °F -11 °F (2003)
Degree Days  
Heating Degree Days 44    
Moisture  
Dew Point 18 °F    
Average Humidity 78    
Maximum Humidity 88    
Minimum Humidity 66    
Precipitation  
Precipitation 0.07 in - - ()
Sea Level Pressure  
Sea Level Pressure 30.35 in    
Wind  
Wind Speed 7 mph (SE)    
Max Wind Speed 17 mph    
Max Gust Speed 24 mph    
Visibility 7 miles    
Events Rain , Snow    
Averages and records for this station are not official NWS values.
T = Trace of Precipitation, MM = Missing Value Source: NWS Daily Summary

Daily Weather History Graph

Daily Weather History Graph

Search for Another Location

Airport or City:

Trip Planner

Search our weather history database for the weather conditions in past years. The results will help you decide how hot, cold, wet, or windy it might be!

Date:

Astronomy

Jan. 27, 2013 Rise Set
Actual Time 7:49 AM EST 5:45 PM EST
Civil Twilight 7:20 AM EST 6:15 PM EST
Nautical Twilight 6:47 AM EST 6:48 PM EST
Astronomical Twilight 6:14 AM EST 7:20 PM EST
Moon 6:39 PM EST (1/27) 7:41 AM EST (1/27)
Length of Visible Light 10h 55m
Length of Day
9h 56m
Full, 100% of the Moon is Illuminated
Jan 27
Full
Feb 3
Last Quarter
Feb 10
New
Feb 17
First Quarter
Feb 25
Full

Hourly Weather History & Observations

Time (EST) Temp. Windchill Dew Point Humidity Pressure Visibility Wind Dir Wind Speed Gust Speed Precip Events Conditions
12:53 AM 14.0 °F 8.2 °F 8.1 °F 77% 30.46 in 10.0 mi South 3.5 mph - N/A   Clear
1:53 AM 16.0 °F - 10.0 °F 77% 30.47 in 10.0 mi Calm Calm - N/A   Clear
2:53 AM 12.9 °F 6.9 °F 9.0 °F 84% 30.47 in 9.0 mi SE 3.5 mph - N/A   Clear
3:53 AM 10.9 °F - 7.0 °F 84% 30.46 in 9.0 mi Calm Calm - N/A   Clear
4:53 AM 12.0 °F 4.1 °F 9.0 °F 88% 30.46 in 8.0 mi East 4.6 mph - N/A   Mostly Cloudy
5:53 AM 16.0 °F 8.8 °F 10.9 °F 81% 30.47 in 9.0 mi SSE 4.6 mph - N/A   Overcast
6:53 AM 14.0 °F - 10.0 °F 84% 30.50 in 8.0 mi Calm Calm - N/A   Mostly Cloudy
7:53 AM 12.9 °F 2.6 °F 9.0 °F 84% 30.48 in 6.0 mi East 6.9 mph - N/A   Clear
8:53 AM 15.1 °F 4.2 °F 10.0 °F 80% 30.49 in 7.0 mi ESE 8.1 mph - N/A   Clear
9:53 AM 18.0 °F 7.7 °F 12.0 °F 78% 30.48 in 9.0 mi SSE 8.1 mph - N/A   Clear
10:53 AM 21.0 °F 11.4 °F 14.0 °F 74% 30.48 in 9.0 mi SSE 8.1 mph - N/A   Clear
11:53 AM 24.1 °F 12.5 °F 16.0 °F 71% 30.46 in 9.0 mi SSE 12.7 mph - N/A   Partly Cloudy
12:53 PM 26.1 °F 15.0 °F 18.0 °F 71% 30.43 in 9.0 mi SSE 12.7 mph - N/A   Overcast
1:53 PM 28.0 °F 18.6 °F 19.0 °F 69% 30.40 in 8.0 mi South 10.4 mph - N/A   Scattered Clouds
2:53 PM 28.9 °F 19.8 °F 19.9 °F 69% 30.37 in 8.0 mi SSE 10.4 mph - N/A   Clear
3:53 PM 30.0 °F 20.5 °F 19.9 °F 66% 30.32 in 8.0 mi ESE 11.5 mph - N/A   Clear
4:53 PM 30.0 °F 21.1 °F 21.0 °F 69% 30.34 in 9.0 mi SSE 10.4 mph - N/A   Overcast
5:53 PM 30.0 °F 21.7 °F 21.0 °F 69% 30.31 in 10.0 mi East 9.2 mph - N/A   Overcast
6:53 PM 30.9 °F 22.8 °F 21.9 °F 69% 30.29 in 9.0 mi ESE 9.2 mph - N/A   Overcast
7:53 PM 30.9 °F 24.3 °F 23.0 °F 72% 30.32 in 9.0 mi ESE 6.9 mph - N/A   Overcast
8:18 PM 30.2 °F 22.6 °F 24.8 °F 80% 30.28 in 2.0 mi SE 8.1 mph - 0.00 in Snow Light Snow
8:25 PM 30.2 °F 23.4 °F 24.8 °F 80% 30.28 in 1.8 mi SE 6.9 mph - 0.01 in Snow Light Snow
8:35 PM 30.2 °F 21.9 °F 24.8 °F 80% 30.26 in 3.0 mi SE 9.2 mph - 0.01 in Snow Light Snow
8:48 PM 30.2 °F 22.6 °F 24.8 °F 80% 30.26 in 5.0 mi SE 8.1 mph - 0.01 in Snow Light Snow
8:53 PM 30.0 °F 22.4 °F 25.0 °F 82% 30.28 in 5.0 mi SE 8.1 mph - 0.01 in Snow Light Snow
9:31 PM 30.2 °F 22.6 °F 24.8 °F 80% 30.24 in 5.0 mi SE 8.1 mph - 0.03 in Rain Light Freezing Rain
9:53 PM 30.9 °F 21.2 °F 25.0 °F 79% 30.24 in 6.0 mi SSE 12.7 mph - 0.03 in Rain Light Freezing Rain
10:51 PM 32.0 °F 21.6 °F 26.6 °F 80% 30.17 in 8.0 mi SE 15.0 mph - 0.01 in   Overcast
10:53 PM 32.0 °F 21.6 °F 27.0 °F 82% 30.19 in 9.0 mi SE 15.0 mph 20.7 mph 0.01 in   Overcast
11:42 PM 32.0 °F 20.8 °F 28.4 °F 87% 30.13 in 6.0 mi SE 17.3 mph 24.2 mph 0.02 in Rain Light Freezing Rain
11:53 PM 32.0 °F 20.8 °F 28.0 °F 85% 30.14 in 6.0 mi SSE 17.3 mph - 0.02 in Rain Light Freezing Rain